Gassville, AR

5:20 AM CST on January 24, 2017 (GMT -0600)
Baxter County Regional

Weather History for KBPK - April, 2013

Change the Weather History Date:

Wednesday, April 10, 2013

  Actual Average (KFLP) Record (KFLP)
Temperature  
Mean Temperature 63 °F -  
Max Temperature 84 °F 67 °F 87 °F (1999)
Min Temperature 42 °F 45 °F 28 °F (2003)
Degree Days  
Heating Degree Days 2    
Growing Degree Days 13 (Base 50)    
Moisture  
Dew Point 53 °F    
Average Humidity 82    
Maximum Humidity 100    
Minimum Humidity 46    
Precipitation  
Precipitation 0.59 in - - ()
Sea Level Pressure  
Sea Level Pressure 29.73 in    
Wind  
Wind Speed 12 mph (WSW)    
Max Wind Speed 20 mph    
Max Gust Speed 32 mph    
Visibility 7 miles    
Events Rain , Thunderstorm    
Averages and records for this station are not official NWS values.
T = Trace of Precipitation, MM = Missing Value Source: NWS Daily Summary

Daily Weather History Graph

Daily Weather History Graph

Search for Another Location

Airport or City:

Trip Planner

Search our weather history database for the weather conditions in past years. The results will help you decide how hot, cold, wet, or windy it might be!

Date:

Astronomy

Apr. 10, 2013 Rise Set
Actual Time 6:42 AM CDT 7:39 PM CDT
Civil Twilight 6:16 AM CDT 8:06 PM CDT
Nautical Twilight 5:45 AM CDT 8:37 PM CDT
Astronomical Twilight 5:13 AM CDT 9:09 PM CDT
Moon 6:40 AM CDT (4/10) 8:14 PM CDT (4/10)
Length of Visible Light 13h 49m
Length of Day
12h 57m
New Moon, 0% of the Moon is Illuminated
Apr 10
New Moon
Apr 18
First Quarter
Apr 25
Full
May 2
Last Quarter
May 9
New

Hourly Weather History & Observations

Time (CDT) Temp. Windchill Dew Point Humidity Pressure Visibility Wind Dir Wind Speed Gust Speed Precip Events Conditions
12:53 AM 75.0 °F - 62.1 °F 64% 29.75 in 9.0 mi South 18.4 mph 29.9 mph N/A   Partly Cloudy
1:53 AM 73.9 °F - 62.1 °F 66% 29.75 in 9.0 mi South 12.7 mph 24.2 mph N/A   Partly Cloudy
2:53 AM 73.9 °F - 63.0 °F 68% 29.74 in 9.0 mi South 11.5 mph 23.0 mph N/A   Mostly Cloudy
3:53 AM 73.0 °F - 62.1 °F 68% 29.75 in 9.0 mi South 11.5 mph 16.1 mph N/A   Overcast
4:53 AM 73.0 °F - 62.1 °F 68% 29.76 in 9.0 mi South 8.1 mph - N/A   Overcast
5:53 AM 72.0 °F - 63.0 °F 73% 29.75 in 9.0 mi South 8.1 mph - N/A   Overcast
6:53 AM 71.1 °F - 63.0 °F 75% 29.77 in 9.0 mi South 5.8 mph - N/A   Overcast
7:53 AM 72.0 °F - 63.0 °F 73% 29.78 in 8.0 mi South 5.8 mph - 0.00 in   Overcast
8:53 AM 73.9 °F - 63.0 °F 68% 29.79 in 8.0 mi South 10.4 mph 19.6 mph N/A   Mostly Cloudy
9:53 AM 75.9 °F - 63.0 °F 64% 29.77 in 9.0 mi South 12.7 mph 18.4 mph N/A   Scattered Clouds
10:53 AM 77.0 °F - 61.0 °F 58% 29.77 in 9.0 mi SSW 15.0 mph 24.2 mph N/A   Mostly Cloudy
11:53 AM 81.0 °F - 61.0 °F 50% 29.75 in 10.0 mi South 15.0 mph 21.9 mph N/A   Scattered Clouds
12:53 PM 81.0 °F - 60.1 °F 49% 29.72 in 9.0 mi South 16.1 mph 32.2 mph N/A   Mostly Cloudy
1:53 PM 81.0 °F - 60.1 °F 49% 29.69 in 8.0 mi South 16.1 mph 23.0 mph N/A   Mostly Cloudy
2:53 PM 84.0 °F - 61.0 °F 46% 29.65 in 8.0 mi South 16.1 mph 23.0 mph N/A   Partly Cloudy
3:53 PM 79.0 °F - 61.0 °F 54% 29.62 in 8.0 mi South 19.6 mph 26.5 mph N/A   Mostly Cloudy
4:53 PM 75.0 °F - 63.0 °F 66% 29.61 in 8.0 mi SSE 17.3 mph 31.1 mph 0.00 in   Mostly Cloudy
5:19 PM 71.6 °F - 64.4 °F 78% 29.64 in 6.0 mi South 8.1 mph 19.6 mph 0.00 in Thunderstorm Unknown
5:40 PM 53.6 °F - 51.8 °F 94% 29.72 in 2.5 mi WNW 11.5 mph 27.6 mph 0.09 in Rain , Thunderstorm Heavy Rain
5:51 PM 50.0 °F - 48.2 °F 94% 29.75 in 3.0 mi WNW 13.8 mph 29.9 mph 0.13 in Rain , Thunderstorm Thunderstorms and Rain
5:53 PM 50.0 °F - 48.0 °F 93% 29.74 in 3.0 mi WNW 12.7 mph 29.9 mph 0.14 in Rain , Thunderstorm Light Thunderstorms and Rain
6:05 PM 48.2 °F - 44.6 °F 87% 29.75 in 2.5 mi NW 10.4 mph 32.2 mph 0.05 in Rain Rain
6:12 PM 46.4 °F 41.5 °F 44.6 °F 93% 29.72 in 2.5 mi NW 10.4 mph 19.6 mph 0.06 in Rain Rain
6:20 PM 48.2 °F - 46.4 °F 93% 29.72 in 5.0 mi NW 9.2 mph - 0.08 in Rain Light Rain
6:39 PM 48.2 °F - 48.2 °F 100% 29.71 in 2.5 mi NW 8.1 mph - 0.19 in Rain Heavy Rain
6:48 PM 48.2 °F - 48.2 °F 100% 29.75 in 3.0 mi West 9.2 mph - 0.22 in Rain Rain
6:53 PM 48.0 °F - 48.0 °F 100% 29.74 in 3.0 mi West 11.5 mph 17.3 mph 0.24 in Rain Rain
7:02 PM 48.2 °F - 48.2 °F 100% 29.74 in 3.0 mi West 10.4 mph 18.4 mph 0.04 in Rain Heavy Rain
7:09 PM 48.2 °F - 48.2 °F 100% 29.72 in 2.5 mi Variable 4.6 mph 16.1 mph 0.09 in Rain , Thunderstorm Heavy Rain
7:18 PM 48.2 °F - 48.2 °F 100% 29.70 in 4.0 mi Variable 3.5 mph - 0.12 in Rain , Thunderstorm Heavy Rain
7:33 PM 48.2 °F - 48.2 °F 100% 29.71 in 4.0 mi WNW 9.2 mph 16.1 mph 0.16 in Rain , Thunderstorm Rain
7:41 PM 46.4 °F 41.9 °F 46.4 °F 100% 29.70 in 6.0 mi NW 9.2 mph 26.5 mph 0.18 in Rain Rain
7:50 PM 46.4 °F 41.9 °F 46.4 °F 100% 29.70 in 10.0 mi NW 9.2 mph 18.4 mph 0.18 in Rain Light Rain
7:53 PM 46.9 °F - 46.0 °F 97% 29.70 in 10.0 mi Variable 6.9 mph 18.4 mph 0.18 in Rain Light Rain
8:53 PM 45.0 °F 41.2 °F 45.0 °F 100% 29.71 in 10.0 mi West 6.9 mph - 0.03 in   Overcast
9:18 PM 44.6 °F 40.7 °F 44.6 °F 100% 29.76 in 10.0 mi Variable 6.9 mph 16.1 mph N/A   Overcast
9:45 PM 44.6 °F 39.2 °F 42.8 °F 93% 29.75 in 10.0 mi WNW 10.4 mph 24.2 mph N/A   Overcast
9:53 PM 43.0 °F 36.4 °F 43.0 °F 100% 29.74 in 10.0 mi WNW 12.7 mph 26.5 mph N/A   Overcast
10:21 PM 42.8 °F 36.2 °F 42.8 °F 100% 29.78 in 10.0 mi WNW 12.7 mph 24.2 mph N/A   Overcast
10:53 PM 42.1 °F 35.7 °F 41.0 °F 96% 29.78 in 10.0 mi NW 11.5 mph 23.0 mph N/A   Overcast
11:53 PM 42.1 °F 37.1 °F 39.0 °F 89% 29.80 in 10.0 mi WNW 8.1 mph 18.4 mph N/A   Overcast